TimeCDT,TemperatureF,Dew PointF,Humidity,Sea Level PressureIn,VisibilityMPH,Wind Direction,Wind SpeedMPH,Gust SpeedMPH,PrecipitationIn,Events,Conditions,WindDirDegrees,DateUTC
12:00 AM,17.6,10.4,73,30.04,15.0,North,19.6,-,N/A,Snow,Light Snow,10,2012-10-07 05:00:00
1:00 AM,17.6,10.4,73,30.05,15.0,North,13.8,-,N/A,Snow,Light Snow,350,2012-10-07 06:00:00
2:00 AM,17.6,12.2,79,30.06,15.0,North,16.1,-,N/A,Snow,Light Snow,360,2012-10-07 07:00:00
4:00 AM,14.0,8.6,79,30.09,15.0,NNW,15.0,-,N/A,Snow,Light Snow,330,2012-10-07 09:00:00
5:00 AM,15.8,8.6,73,30.10,15.0,NNW,17.3,-,N/A,Snow,Light Snow,340,2012-10-07 10:00:00
6:00 AM,15.8,10.4,79,30.12,15.0,NNW,12.7,-,N/A,Snow,Light Snow,340,2012-10-07 11:00:00
6:43 AM,-9999,-9999,N/A,-9999,15.0,NNW,12.7,-,N/A,,Mostly Cloudy,340,2012-10-07 11:43:00
7:00 AM,15,8,65,30.12,15,North,18.4,,,,Partly Cloudy,350,2012-10-07 12:00:00
7:00 AM,14.0,8.6,79,30.12,15.0,North,18.4,-,N/A,,Mostly Cloudy,350,2012-10-07 12:00:00
8:00 AM,15.8,8.6,73,30.12,15.0,North,15.0,-,N/A,,Mostly Cloudy,360,2012-10-07 13:00:00
8:18 AM,-9999,-9999,N/A,-9999,15.0,NW,4.6,-,N/A,,Overcast,320,2012-10-07 13:18:00
9:00 AM,17.6,12.2,79,30.13,15.0,North,10.4,-,N/A,Snow,Light Snow,350,2012-10-07 14:00:00
9:33 AM,-9999,-9999,N/A,-9999,15.0,North,12.7,-,N/A,,Overcast,350,2012-10-07 14:33:00
10:00 AM,17.6,12.2,79,30.13,15.0,North,15.0,-,N/A,,Overcast,360,2012-10-07 15:00:00
11:00 AM,17.6,12.2,79,30.13,15.0,NW,8.1,-,N/A,,Mostly Cloudy,320,2012-10-07 16:00:00
11:52 AM,-9999,-9999,N/A,-9999,15.0,NW,12.7,-,N/A,,Overcast,320,2012-10-07 16:52:00
12:00 PM,17.6,14.0,86,30.14,15.0,NNW,10.4,-,N/A,,Overcast,330,2012-10-07 17:00:00
1:00 PM,18,12,70,30.14,15,NW,9.2,,,,Partly Cloudy,320,2012-10-07 18:00:00
1:00 PM,17.6,12.2,79,30.14,15.0,NW,9.2,-,N/A,,Overcast,320,2012-10-07 18:00:00
1:32 PM,-9999,-9999,N/A,-9999,15.0,NNW,10.4,-,N/A,,Unknown,330,2012-10-07 18:32:00
2:00 PM,19.4,12.2,74,30.14,15.0,North,12.7,-,N/A,Snow,Light Snow,350,2012-10-07 19:00:00
2:19 PM,-9999,-9999,N/A,-9999,15.0,NNW,10.4,-,N/A,,Overcast,340,2012-10-07 19:19:00
3:00 PM,19.4,12.2,74,30.15,15.0,North,12.7,-,N/A,,Overcast,350,2012-10-07 20:00:00
4:00 PM,17.6,12.2,79,30.16,15.0,NNW,11.5,-,N/A,Snow,Light Snow,340,2012-10-07 21:00:00
5:00 PM,17.6,10.4,73,30.16,15.0,North,13.8,-,N/A,Snow,Light Snow,360,2012-10-07 22:00:00
6:00 PM,17.6,10.4,73,30.16,15.0,NNW,11.5,-,N/A,Snow,Light Snow,340,2012-10-07 23:00:00
7:00 PM,16,10,68,30.16,15,NNW,9.2,,,Snow,Light Snow,340,2012-10-08 00:00:00
7:00 PM,15.8,10.4,79,30.16,15.0,NNW,9.2,-,N/A,Snow,Light Snow,340,2012-10-08 00:00:00
8:00 PM,15.8,10.4,79,30.15,15.0,NNW,9.2,-,N/A,Snow,Light Snow,340,2012-10-08 01:00:00
8:42 PM,-9999,-9999,N/A,-9999,15.0,NNW,6.9,-,N/A,,Scattered Clouds,340,2012-10-08 01:42:00
9:00 PM,12.2,6.8,79,30.14,15.0,NNW,9.2,-,N/A,,Scattered Clouds,340,2012-10-08 02:00:00
10:00 PM,12.2,6.8,79,30.12,15.0,North,5.8,-,N/A,,Partly Cloudy,350,2012-10-08 03:00:00
11:00 PM,12.2,8.6,85,30.10,15.0,North,9.2,-,N/A,,Scattered Clouds,360,2012-10-08 04:00:00